Prescott, AZ

7:01 AM MST on December 15, 2019 (GMT -0700)
Love

Weather History for KPRC - October, 2019

Change the Weather History Date:

Tuesday, October 29, 2019

  Actual Average Record
Temperature  
Mean Temperature 46 °F 52 °F  
Max Temperature 61 °F 67 °F 82 °F (1950)
Min Temperature 31 °F 37 °F 22 °F (1996)
Degree Days  
Heating Degree Days 19    
Month to date heating degree days 239  
Since 1 July heating degree days 266  
Cooling Degree Days 0    
Month to date cooling degree days 0  
Year to date cooling degree days 1130  
Moisture  
Dew Point 1 °F    
Average Humidity 18    
Maximum Humidity 35    
Minimum Humidity 6    
Precipitation  
Precipitation 0.00 in 0.03 in 0.97 in (1987)
Month to date precipitation 0.00 0.86  
Year to date precipitation 10.29 12.03  
Sea Level Pressure  
Sea Level Pressure 29.84 in    
Wind  
Wind Speed 9 mph ()    
Max Wind Speed 26 mph    
Max Gust Speed 36 mph    
Visibility 10.0 miles    
Events      
T = Trace of Precipitation, MM = Missing Value Source: Averaged Metar Reports

Daily Weather History Graph

Daily Weather History Graph

Search for Another Location

Airport or City:

Astronomy

Oct. 29, 2019 Rise Set
Actual Time 6:47 AM MST 5:39 PM MST
Civil Twilight 6:21 AM MST 6:04 PM MST
Nautical Twilight 5:51 AM MST 6:34 PM MST
Astronomical Twilight 5:22 AM MST 7:03 PM MST
Moon 8:22 AM MST (10/29) 7:09 PM MST (10/29)
Length of Visible Light 11h 43m
Length of Day
10h 51m
Waxing Crescent, 4% of the Moon is Illuminated
Oct 29
Waxing Crescent
Nov 4
First Quarter
Nov 12
Full
Nov 19
Last Quarter
Nov 26
New

Hourly Weather History & Observations

Time (MST) Temp. Windchill Dew Point Humidity Pressure Visibility Wind Dir Wind Speed Gust Speed Precip Events Conditions
12:53 AM 42.1 °F 36.6 °F 5.0 °F 22% 29.86 in 10.0 mi South 9.2 mph - N/A   Clear
1:53 AM 37.0 °F 32.4 °F 8.1 °F 30% 29.87 in 10.0 mi SSE 5.8 mph - N/A   Clear
2:53 AM 34.0 °F 28.8 °F 8.1 °F 34% 29.86 in 10.0 mi South 5.8 mph - N/A   Clear
3:53 AM 37.0 °F 31.0 °F 8.1 °F 30% 29.83 in 10.0 mi SSE 8.1 mph - N/A   Clear
4:53 AM 36.0 °F 30.3 °F 8.1 °F 31% 29.83 in 10.0 mi SSE 6.9 mph - N/A   Clear
5:53 AM 37.0 °F 31.6 °F 6.1 °F 28% 29.83 in 10.0 mi SSE 6.9 mph - N/A   Clear
6:53 AM 39.0 °F 32.3 °F 6.1 °F 26% 29.83 in 10.0 mi SE 10.4 mph - N/A   Clear
7:53 AM 44.1 °F 38.6 °F 3.0 °F 18% 29.83 in 10.0 mi SSE 10.4 mph - N/A   Clear
8:53 AM 46.9 °F - 5.0 °F 18% 29.84 in 10.0 mi SE 10.4 mph - N/A   Clear
9:53 AM 53.1 °F - -0.9 °F 11% 29.81 in 10.0 mi SSE 6.9 mph - N/A   Clear
10:53 AM 55.9 °F - -4.0 °F 9% 29.81 in 10.0 mi WSW 15.0 mph 24.2 mph N/A   Clear
11:53 AM 57.0 °F - -4.0 °F 8% 29.77 in 10.0 mi SW 13.8 mph 23.0 mph N/A   Clear
12:53 PM 59.0 °F - -9.9 °F 6% 29.73 in 10.0 mi WSW 19.6 mph 27.6 mph N/A   Clear
1:53 PM 60.1 °F - -6.0 °F 7% 29.74 in 10.0 mi WSW 21.9 mph 26.5 mph N/A   Clear
2:53 PM 57.0 °F - -4.0 °F 8% 29.75 in 10.0 mi WSW 19.6 mph 29.9 mph N/A   Clear
3:53 PM 55.9 °F - -5.1 °F 8% 29.76 in 10.0 mi West 20.7 mph 25.3 mph 0.00 in   Clear
4:53 PM 53.1 °F - -4.0 °F 10% 29.79 in 10.0 mi WSW 16.1 mph 20.7 mph N/A   Clear
5:53 PM 50.0 °F - -2.9 °F 11% 29.81 in 10.0 mi WSW 13.8 mph - N/A   Clear
6:53 PM 46.9 °F - -2.9 °F 13% 29.84 in 10.0 mi West 9.2 mph - N/A   Clear
7:53 PM 45.0 °F 39.7 °F -2.0 °F 14% 29.85 in 10.0 mi SSW 10.4 mph - N/A   Clear
8:53 PM 41.0 °F 35.2 °F -0.9 °F 17% 29.88 in 10.0 mi WSW 9.2 mph - N/A   Clear
9:53 PM 42.1 °F 36.6 °F -0.0 °F 17% 29.91 in 10.0 mi West 9.2 mph - N/A   Clear
10:35 PM 37.0 °F 30.4 °F -0.0 °F 21% 30.05 in 10.0 mi North 9.2 mph - N/A   Clear
10:53 PM 36.0 °F 29.0 °F 1.0 °F 23% 29.97 in 10.0 mi North 9.2 mph - N/A   Clear
11:53 PM 34.0 °F 26.6 °F 7.0 °F 32% 30.02 in 9.0 mi NNW 9.2 mph - N/A   Clear